ELECTRON KICK STAGE R/B, 62086

Orbit data source: Space-Track

ELECTRON KICK STAGE R/B, 62086 is space debris in SSO originally from a launch on Mon, 25 Nov 2024 UTC launched from the Rocket Lab Launch Complex (RLLC). Debris objects in space refer to the collection of defunct objects orbiting the Earth. Examples of debris include non-operational satellites, rocket bodies, and fragments generated from explosions, collisions, or faulty payload assembly.

Loading next visibility...
ELECTRON KICK STAGE R/B details
Identifier
62086, 2024-219F
Orbit
SSO
Last TLE update22 hours ago
Origin
Flag of USRocket Lab (US)
ManufacturerRocket Lab
MissionSpacecraft
Bus & MotorELECTRON ST2, Unknown motor
Mass250 kg wet, ~250 kg dry
Launch date (UTC)
2024-11-25 (1 month ago)
Launch vehicleUnknown
Launch site
Rocket Lab Launch Complex (RLLC)
Object type
Payload
Rocket body
Debris
Shape & HBRUnknown
Radar Cross SectionLarge (>1 m²)

Expand to show TLE details & history

TLE from 22 hours ago
0 ELECTRON KICK STAGE R/B
1 62086U 24219F   24360.47513402  .00010431  00000-0  10429-2 0  9998
2 62086  97.9396 159.5613 0056876 297.9175  61.6290 14.90430792  4501
Epoch: 2024-12-25T11:24Z
Definitive object data (Epoch: 2024-12-25T11:24:11.579Z)
Latitude-0.00006°
Longitude-105.95529°
Altitude580.947 km
Speed7.58 km/s
True Right ascension10h 38m 14s
True Declination0° 00' 00"
Sunlit
Object was in daylight at TLE epoch
Visualization TLE readout
Latitude-27.81684°
Longitude-100.81921°
Altitude575.354 km
Speed7.589 km/s
Apparent Right ascension14h 23m 20s
Apparent Declination-68° 42' 22"
Sunlit
Object is in daylight
Visualization observer readout
Local Sidereal Time09:11:16
Azimuth155.034° SSE
Elevation-32.686°
Doppler factor1
Orbital elements
Apogee altitude633.273 km
Perigee altitude553.967 km
Semi-major axis6,971.757 km
Eccentricity0.0056876
Inclination97.9396°
RAAN159.5613°
Arg. of periapsis297.9175°
True anomaly62.2044°
Mean anomaly61.629°
Eccentric anomaly61.91651°
Mean motion3.72846 °/min
BSTAR0.0010429
Orbital period96.55 mins
Loading maneuver chart data...
Loading historical data...
Loading historical data...
Loading historical data...
Loading historical data...
Loading historical data...
Loading historical data...
Loading historical data...

ELECTRON KICK STAGE R/B Visibility forecast

Observer location: undefined°, undefined

Span
Click to sort rows by Start time (UTC) header in descending order
Start Az.
Max El. time (UTC)
Max El. Az.
Max El.
End time (UTC)
End Az.
6 mins2024-12-26 10:06:10.891Z122.325° SE2024-12-26 10:09:10.891Z67.789° E24.921°2024-12-26 10:12:10.891Z15.486° NNE
4 mins2024-12-26 11:43:10.891Z233.909° WSW2024-12-26 11:45:10.891Z275.526° WNW21.392°2024-12-26 11:47:10.891Z309.367° NW
6 mins2024-12-26 23:26:10.891Z28.872° NE2024-12-26 23:29:10.891Z115.046° SE38.95°2024-12-26 23:32:10.891Z174.624° S
|